This is the latest recevied weather packets stored in our database for station/object HB9TJM-8. If no packets are shown the sender has not sent any weather packets the latest 10 day(s).
| Time | Temp. | Humidity | Pressure | Rain* | Wind** | Luminosity | Snow |
|---|---|---|---|---|---|---|---|
| 1777709450 | 15.56° C | 64% | 1023.3 hPa | 0 mm | - | 549 W/m² | - |
| 1777709143 | 15° C | 65% | 1023.5 hPa | 0 mm | - | 541 W/m² | - |
| 1777709142 | 15° C | 65% | 1023.5 hPa | 0 mm | - | 541 W/m² | - |
| 1777708835 | 14.44° C | 64% | 1023.3 hPa | 0 mm | - | 526 W/m² | - |
| 1777708835 | 14.44° C | 64% | 1023.3 hPa | 0 mm | - | 526 W/m² | - |
| 1777708221 | 15.56° C | 63% | 1023.4 hPa | 0 mm | - | 494 W/m² | - |
| 1777708220 | 15.56° C | 63% | 1023.4 hPa | 0 mm | - | 494 W/m² | - |
| 1777707913 | 15° C | 65% | 1023.5 hPa | 0 mm | - | 479 W/m² | - |
| 1777707913 | 15° C | 65% | 1023.5 hPa | 0 mm | - | 479 W/m² | - |
| 1777707606 | 15° C | 63% | 1023.3 hPa | 0 mm | - | 467 W/m² | - |
| 1777707606 | 15° C | 63% | 1023.3 hPa | 0 mm | - | 467 W/m² | - |
| 1777707298 | 14.44° C | 63% | 1023.7 hPa | 0 mm | - | 448 W/m² | - |
| 1777706991 | 15.56° C | 63% | 1023.5 hPa | 0 mm | - | 393 W/m² | - |
| 1777706683 | 15.56° C | 61% | 1023.8 hPa | 0 mm | - | 416 W/m² | - |
| 1777706375 | 15° C | 62% | 1023.5 hPa | 0 mm | - | 399 W/m² | - |
| 1777706068 | 15° C | 62% | 1023.6 hPa | 0 mm | - | 361 W/m² | - |
| 1777706068 | 15° C | 62% | 1023.6 hPa | 0 mm | - | 361 W/m² | - |
| 1777705762 | 15° C | 63% | 1023.7 hPa | 0 mm | - | 362 W/m² | - |
| 1777705761 | 15° C | 63% | 1023.7 hPa | 0 mm | - | 362 W/m² | - |
| 1777705454 | 15° C | 64% | 1023.7 hPa | 0 mm | - | 332 W/m² | - |
| 1777705454 | 15° C | 64% | 1023.7 hPa | 0 mm | - | 332 W/m² | - |
| 1777705146 | 14.44° C | 63% | 1023.6 hPa | 0 mm | - | 323 W/m² | - |
| 1777705146 | 14.44° C | 63% | 1023.6 hPa | 0 mm | - | 323 W/m² | - |
| 1777704839 | 14.44° C | 63% | 1023.8 hPa | 0 mm | - | 299 W/m² | - |
| 1777704531 | 14.44° C | 62% | 1023.5 hPa | 0 mm | - | 285 W/m² | - |
* Rain latest hour (hover to see other rain measurements)
** Current wind speed in m/s (hover to see current wind gust speed)